• en France
  • Liste des pays
  • À 7 jours
  • Température de l'eau
  • Carte satellitaire
  • Carte météo
  • Widgets météo
  • user-avatar
    Se connecter

    Météo par heure à San José

    Ce jour, 18 Décembre, Lundi

    Heure Température Précipitation Vent Pression Humidité
    00:00 +18°C° 0 mm 2 m/s 662 mmHg 84%
    01:00 +18°C° 0 mm 2 m/s 661 mmHg 83%
    02:00 +18°C° 0 mm 2 m/s 661 mmHg 82%
    03:00 +18°C° 0 mm 2 m/s 661 mmHg 82%
    04:00 +18°C° 0 mm 2 m/s 661 mmHg 82%
    05:00 +18°C° 0 mm 2 m/s 662 mmHg 83%
    06:00 +18°C° 0 mm 2 m/s 662 mmHg 83%
    07:00 +20°C° 0 mm 2 m/s 663 mmHg 77%
    08:00 +21°C° 0 mm 2 m/s 664 mmHg 71%
    09:00 +24°C° 0 mm 2 m/s 664 mmHg 65%
    10:00 +25°C° 0 mm 2 m/s 665 mmHg 61%
    11:00 +26°C° 0 mm 3 m/s 665 mmHg 56%
    12:00 +27°C° 0 mm 3 m/s 665 mmHg 52%
    13:00 +27°C° 0 mm 3 m/s 664 mmHg 54%
    14:00 +26°C° 0 mm 2 m/s 663 mmHg 55%
    15:00 +26°C° 0 mm 2 m/s 663 mmHg 57%
    16:00 +24°C° 0 mm 2 m/s 662 mmHg 67%
    17:00 +20°C° 0 mm 2 m/s 662 mmHg 77%
    18:00 +19°C° 0 mm 1 m/s 662 mmHg 87%
    19:00 +19°C° 0 mm 1 m/s 662 mmHg 85%
    20:00 +19°C° 0 mm 1 m/s 662 mmHg 84%
    21:00 +18°C° 0 mm 1 m/s 663 mmHg 82%
    22:00 +18°C° 0 mm 1 m/s 663 mmHg 80%
    23:00 +18°C° 0 mm 1 m/s 663 mmHg 79%

    Demain, 19 Décembre, Mardi

    Heure Température Précipitation Vent Pression Humidité
    00:00 +18°C° 0 mm 1 m/s 663 mmHg 77%
    01:00 +18°C° 0,1 mm 1 m/s 662 mmHg 79%
    02:00 +17°C° 0,1 mm 2 m/s 662 mmHg 82%
    03:00 +17°C° 0,1 mm 2 m/s 662 mmHg 84%
    04:00 +17°C° 0 mm 2 m/s 662 mmHg 85%
    05:00 +17°C° 0 mm 2 m/s 662 mmHg 85%
    06:00 +17°C° 0 mm 2 m/s 662 mmHg 86%
    07:00 +20°C° 0 mm 2 m/s 663 mmHg 77%
    08:00 +23°C° 0 mm 2 m/s 664 mmHg 68%
    09:00 +25°C° 0 mm 2 m/s 665 mmHg 58%
    10:00 +26°C° 0 mm 2 m/s 665 mmHg 55%
    11:00 +27°C° 0 mm 3 m/s 665 mmHg 53%
    12:00 +28°C° 0 mm 3 m/s 665 mmHg 50%
    13:00 +27°C° 0 mm 3 m/s 664 mmHg 53%
    14:00 +26°C° 0 mm 2 m/s 663 mmHg 56%
    15:00 +26°C° 0 mm 2 m/s 662 mmHg 59%
    16:00 +24°C° 0 mm 2 m/s 662 mmHg 69%
    17:00 +22°C° 0 mm 1 m/s 662 mmHg 79%
    18:00 +20°C° 0 mm 1 m/s 662 mmHg 89%
    19:00 +19°C° 0 mm 1 m/s 662 mmHg 87%
    20:00 +19°C° 0 mm 1 m/s 662 mmHg 85%
    21:00 +19°C° 0 mm 1 m/s 663 mmHg 83%
    22:00 +19°C° 0 mm 1 m/s 663 mmHg 84%
    23:00 +19°C° 0 mm 1 m/s 663 mmHg 84%

    Après-demain, 20 Décembre, Mercredi

    Heure Température Précipitation Vent Pression Humidité
    00:00 +19°C° 0 mm 1 m/s 663 mmHg 85%
    01:00 +19°C° 0 mm 1 m/s 662 mmHg 86%
    02:00 +19°C° 0 mm 1 m/s 662 mmHg 87%
    03:00 +19°C° 0 mm 1 m/s 662 mmHg 88%
    04:00 +19°C° 0,2 mm 1 m/s 662 mmHg 88%
    05:00 +19°C° 0,2 mm 1 m/s 662 mmHg 89%
    06:00 +19°C° 0,2 mm 1 m/s 662 mmHg 89%
    07:00 +21°C° 0 mm 1 m/s 663 mmHg 83%
    08:00 +21°C° 0 mm 2 m/s 664 mmHg 76%
    09:00 +24°C° 0 mm 2 m/s 665 mmHg 70%
    10:00 +25°C° 0,1 mm 2 m/s 664 mmHg 66%
    11:00 +26°C° 0,1 mm 2 m/s 664 mmHg 62%
    12:00 +27°C° 0,1 mm 2 m/s 664 mmHg 59%
    13:00 +26°C° 0,1 mm 2 m/s 663 mmHg 62%
    14:00 +25°C° 0,1 mm 2 m/s 662 mmHg 66%
    15:00 +24°C° 0,1 mm 2 m/s 662 mmHg 70%
    16:00 +23°C° 0,1 mm 1 m/s 661 mmHg 76%
    17:00 +21°C° 0,1 mm 1 m/s 661 mmHg 83%
    18:00 +20°C° 0,1 mm 1 m/s 661 mmHg 90%
    19:00 +20°C° 0 mm 1 m/s 661 mmHg 89%
    20:00 +20°C° 0 mm 1 m/s 662 mmHg 88%
    21:00 +19°C° 0 mm 1 m/s 662 mmHg 87%
    22:00 +19°C° 0 mm 1 m/s 662 mmHg 88%
    23:00 +19°C° 0 mm 1 m/s 662 mmHg 88%

    21 Décembre, Jeudi

    Heure Température Précipitation Vent Pression Humidité
    00:00 +19°C° 0 mm 1 m/s 661 mmHg 88%
    01:00 +19°C° 0 mm 1 m/s 661 mmHg 88%
    02:00 +19°C° 0 mm 1 m/s 661 mmHg 88%
    03:00 +19°C° 0 mm 1 m/s 661 mmHg 88%
    04:00 +19°C° 0 mm 1 m/s 661 mmHg 87%
    05:00 +19°C° 0 mm 1 m/s 661 mmHg 87%
    06:00 +19°C° 0 mm 1 m/s 662 mmHg 87%
    07:00 +21°C° 0 mm 1 m/s 663 mmHg 81%
    08:00 +21°C° 0 mm 2 m/s 663 mmHg 74%
    09:00 +24°C° 0 mm 2 m/s 664 mmHg 68%
    10:00 +25°C° 0,1 mm 2 m/s 664 mmHg 66%
    11:00 +25°C° 0,1 mm 2 m/s 664 mmHg 64%
    12:00 +26°C° 0,1 mm 2 m/s 663 mmHg 62%
    13:00 +26°C° 0 mm 2 m/s 663 mmHg 62%
    14:00 +25°C° 0 mm 2 m/s 662 mmHg 61%
    15:00 +25°C° 0 mm 2 m/s 662 mmHg 61%
    16:00 +23°C° 0 mm 2 m/s 661 mmHg 69%
    17:00 +21°C° 0 mm 1 m/s 661 mmHg 77%
    18:00 +19°C° 0 mm 1 m/s 661 mmHg 85%
    19:00 +19°C° 0 mm 1 m/s 661 mmHg 82%
    20:00 +19°C° 0 mm 1 m/s 662 mmHg 80%
    21:00 +17°C° 0 mm 2 m/s 662 mmHg 77%
    22:00 +17°C° 0 mm 2 m/s 662 mmHg 77%
    23:00 +17°C° 0 mm 2 m/s 662 mmHg 77%

    22 Décembre, Vendredi

    Heure Température Précipitation Vent Pression Humidité
    00:00 +17°C° 0 mm 2 m/s 662 mmHg 77%
    01:00 +17°C° 0 mm 2 m/s 661 mmHg 78%
    02:00 +17°C° 0 mm 2 m/s 661 mmHg 79%
    03:00 +17°C° 0 mm 2 m/s 661 mmHg 80%
    04:00 +17°C° 0 mm 2 m/s 661 mmHg 80%
    05:00 +17°C° 0 mm 2 m/s 661 mmHg 80%
    06:00 +17°C° 0 mm 2 m/s 662 mmHg 80%
    07:00 +19°C° 0 mm 2 m/s 663 mmHg 71%
    08:00 +23°C° 0 mm 2 m/s 664 mmHg 62%
    09:00 +25°C° 0 mm 2 m/s 665 mmHg 54%
    10:00 +26°C° 0 mm 2 m/s 664 mmHg 51%
    11:00 +27°C° 0 mm 2 m/s 664 mmHg 49%
    12:00 +28°C° 0 mm 3 m/s 664 mmHg 47%
    13:00 +27°C° 0 mm 3 m/s 664 mmHg 50%
    14:00 +27°C° 0 mm 3 m/s 663 mmHg 54%
    15:00 +26°C° 0 mm 2 m/s 662 mmHg 57%
    16:00 +24°C° 0 mm 2 m/s 662 mmHg 68%
    17:00 +22°C° 0 mm 1 m/s 662 mmHg 78%
    18:00 +20°C° 0 mm 1 m/s 662 mmHg 89%
    19:00 +19°C° 0 mm 1 m/s 662 mmHg 87%
    20:00 +19°C° 0 mm 1 m/s 663 mmHg 85%
    21:00 +18°C° 0 mm 1 m/s 663 mmHg 84%
    22:00 +18°C° 0 mm 1 m/s 663 mmHg 83%
    23:00 +18°C° 0 mm 1 m/s 662 mmHg 82%

    23 Décembre, Samedi

    Heure Température Précipitation Vent Pression Humidité
    00:00 +18°C° 0 mm 1 m/s 662 mmHg 81%
    01:00 +17°C° 0 mm 2 m/s 662 mmHg 82%
    02:00 +17°C° 0 mm 2 m/s 662 mmHg 82%
    03:00 +17°C° 0 mm 2 m/s 661 mmHg 83%
    04:00 +17°C° 0 mm 2 m/s 662 mmHg 83%
    05:00 +17°C° 0 mm 2 m/s 662 mmHg 83%
    06:00 +17°C° 0 mm 2 m/s 662 mmHg 83%
    07:00 +20°C° 0 mm 2 m/s 663 mmHg 74%
    08:00 +23°C° 0 mm 2 m/s 664 mmHg 64%
    09:00 +25°C° 0 mm 2 m/s 665 mmHg 55%
    10:00 +26°C° 0 mm 2 m/s 665 mmHg 52%
    11:00 +27°C° 0 mm 3 m/s 665 mmHg 49%
    12:00 +28°C° 0 mm 3 m/s 664 mmHg 46%
    13:00 +27°C° 0 mm 3 m/s 664 mmHg 48%
    14:00 +27°C° 0 mm 3 m/s 663 mmHg 51%
    15:00 +26°C° 0 mm 3 m/s 662 mmHg 53%
    16:00 +24°C° 0 mm 2 m/s 662 mmHg 63%
    17:00 +21°C° 0 mm 2 m/s 662 mmHg 73%
    18:00 +19°C° 0 mm 1 m/s 662 mmHg 84%
    19:00 +19°C° 0 mm 1 m/s 662 mmHg 82%
    20:00 +18°C° 0 mm 2 m/s 662 mmHg 79%
    21:00 +18°C° 0 mm 2 m/s 663 mmHg 77%
    22:00 +18°C° 0 mm 2 m/s 662 mmHg 78%
    23:00 +18°C° 0 mm 2 m/s 662 mmHg 79%
    Voir plus

    XHprof extension not loaded